www.pogodaiklimat.ru

Погода и климат >> Архив погоды >> КНДР >> Хыйчхон


ПОГОДА в Хыйчхоне

  • Прогноз погоды в Хыйчхоне
  • Монитор погоды в Хыйчхоне

АРХИВ ПОГОДЫ в Хыйчхоне

Время (UTC), дата Ветер
(напр.,м/с)
 
Видим.   Явления Облачность Т
(С)
Тd
(С)
f
(%)
Тe
(С)
Тes
(С)
Комфортность P
(гПа)
Po
(гПа)
Тmin
(С)
Tmax
(С)
R
(мм)
R24
(мм)
S
(см)
15 14.08 З 1 20 км 10/8 600 м
[Cb cap Ci sp]
+24.8 +23.3 91 +33 +33 очень
душно
999.5 982.1
18 14.08 штиль 0 20 км 10/10 600 м
[Sc diur, vesp]
+24.2 +22.7 91 +32 +32 очень
душно
998.3 980.8
21 14.08 штиль 0 15 км 10/10 600 м
[Sc diur, vesp]
+23.8 +22.5 92 +31 +31 очень
душно
998.3 980.8
00 15.08 штиль 0 20 км 10/9 600 м
[Sc diur, vesp Ci sp]
+25.3 +24.0 93 +35 +36 очень
душно
997.4 980.0 +23.8
03 15.08 ЮВ 1 20 км 10/10 600 м
[Sc diur, vesp]
+27.4 +25.1 87 +39 +39 очень
душно
996.2 979.0
06 15.08 штиль 0 15 км 10/10 600 м
[Sc diur, vesp]
+26.6 +24.1 86 +37 +37 очень
душно
995.1 977.8 +28.5
09 15.08 штиль 0 12 км 10/10 600 м
[Sc diur, vesp]
+26.3 +24.4 89 +37 +37 очень
душно
993.8 976.5
12 15.08 штиль 0 20 км 10/10 600 м
[Sc diur, vesp]
+24.7 +23.5 93 +33 +33 очень
душно
993.1 975.8 +28.5
15 15.08 штиль 0 15 км слаб. дождь 10/0 600 м
[As op]
+24.2 +23.2 94 +32 +32 очень
душно
992.7 975.3 1
18 15.08 штиль 0 10 км слаб. дождь 10/0 600 м
[As op]
+23.0 +22.0 94 +31 +31 очень
душно
992.0 974.6 7
21 15.08 штиль 0 15 км в посл. час дождь 10/10 600 м
[Sc diur, vesp]
+23.0 +22.0 94 +31 +31 очень
душно
992.2 974.8 4
00 16.08 штиль 0 10 км 10/10 600 м
[Sc diur, vesp]
+23.9 +22.6 92 +31 +31 очень
душно
992.7 975.3 +23.0 0.1
03 16.08 штиль 0 10 км слаб. дождь 10/0 600 м
[As op]
+24.6 +23.5 94 +33 +38 очень
душно
992.3 975.0 3
06 16.08 ЮЗ 2 15 км {дождь} 8/5 600 м
[Sc diur, vesp Ac trans]
+28.8 +26.0 85 +43 +47 опасность
перегрева
992.2 975.1 +29.5 0.6
09 16.08 ЮЗ 3 20 км 6/6 600 м
[Sc diur, vesp]
+27.8 +25.3 86 +40 +41 очень
душно
992.6 975.5
12 16.08 ЮЗ 1 15 км слаб. дождь 10/0 600 м
[As op]
+21.8 +19.7 88 +27 +27 душно 995.8 978.3 +29.8 6
15 16.08 штиль 0 10 км дождь 10/0 600 м
[As op]
+20.5 +18.6 89 +24 +24 комфорт 996.5 978.9 42
18 16.08 штиль 0 15 км {дождь} 10/8 600 м
[Sc diur, vesp Ci sp]
+20.2 +19.1 93 +24 +24 комфорт 996.5 978.8 0.1
21 16.08 штиль 0 15 км {дождь} 8/8 600 м
[Cb cap]
+22.1 +20.7 92 +28 +28 душно 997.2 979.6 0.2
00 17.08 ЮЗ 2 13 км 9/8 600 м
[Sc diur, vesp Ci sp]
+23.4 +21.6 90 +32 +33 очень
душно
998.5 981.0 +20.0 42
03 17.08 ЮЗ 3 15 км 9/8 600 м
[Sc diur, vesp Ci sp]
+26.1 +22.9 83 +35 +37 очень
душно
998.6 981.3
06 17.08 ЮЗ 2 13 км 9/8 600 м
[Sc diur, vesp Ci sp]
+26.3 +23.2 83 +35 +38 очень
душно
998.7 981.3 +27.4
09 17.08 ЮЗ 1 15 км 8/6 600 м
[Sc diur, vesp Ci sp]
+25.9 +21.9 79 +33 +34 очень
душно
998.6 981.2
12 17.08 штиль 0 15 км 10/8 600 м
[Sc diur, vesp Ci sp]
+20.4 +18.2 87 +24 +24 комфорт 1001.5 983.8 +27.4
15 17.08 штиль 0 15 км 5/3 600 м
[Sc diur, vesp Ac trans Ci sp]
+18.7 +17.3 92 +20 +20 1003.8 985.9
18 17.08 штиль 0 20 км 3/1 600 м
[Sc diur, vesp Ac trans]
+17.4 +16.3 93 +17 +17 1004.6 986.6
21 17.08 штиль 0 10 км 10/10 600 м
[Sc diur, vesp]
+17.0 +15.8 93 +17 +17 1005.4 987.4
00 18.08 штиль 0 15 км 10/6 600 м
[Sc diur, vesp Ci sp]
+19.5 +18.0 91 +22 +25 комфорт 1007.5 989.6 +16.4
03 18.08 штиль 0 20 км 4/4 600 м
[Sc diur, vesp]
+25.6 +22.8 85 +34 +48 очень
душно
1007.5 990.0
06 18.08 Ю 1 20 км 3/3 600 м
[Sc diur, vesp]
+27.9 +24.2 80 +39 +49 очень
душно
1006.8 989.4 +28.3
09 18.08 ЮЗ 1 20 км 3/3 600 м
[Sc diur, vesp]
+27.3 +22.8 76 +36 +37 очень
душно
1006.2 988.8
12 18.08 штиль 0 15 км ясно +22.0 +19.4 85 +27 +27 душно 1007.6 989.9 +29.0
15 18.08 штиль 0 15 км 10/8 600 м
[Sc diur, vesp Ac trans]
+20.6 +19.7 95 +25 +25 комфорт 1009.5 991.6
18 18.08 штиль 0 15 км 10/10 600 м
[Sc diur, vesp]
+20.5 +19.2 92 +24 +24 комфорт 1010.5 992.6
21 18.08 штиль 0 15 км 6/1 600 м
[Sc diur, vesp Ac trans Ci sp]
+18.0 +16.0 88 +18 +18 1011.4 993.3
00 19.08 штиль 0 20 км 3/0
[Ci sp]
+22.2 +20.9 92 +29 +38 очень
душно
1010.7 992.9 +17.4
03 19.08 штиль 0 20 км 3/3 600 м
[Sc diur, vesp]
+27.6 +23.9 80 +38 +54 опасность
солнечного
удара
1010.7 993.2
06 19.08 Ю 1 20 км 4/4 600 м
[Sc diur, vesp]
+30.3 +25.5 76 +45 +53 опасность
перегрева
1009.4 992.1 +30.3
09 19.08 штиль 0 20 км 3/3 600 м
[Sc diur, vesp]
+27.6 +22.6 74 +36 +38 очень
душно
1009.4 991.9
12 19.08 штиль 0 20 км ясно +22.6 +21.1 91 +30 +30 очень
душно
1011.8 994.0 +30.3
15 19.08 штиль 0 20 км ясно +20.4 +18.8 91 +24 +24 комфорт 1013.0 995.1
18 19.08 штиль 0 20 км ясно +18.8 +17.6 93 +20 +20 1012.7 994.7
21 19.08 штиль 0 20 км ясно +17.2 +16.2 94 +17 +17 1012.6 994.5
00 20.08 штиль 0 15 км 3/0 1500 м
[Ac trans Ci sp]
+21.7 +19.8 89 +27 +36 душно 1013.1 995.2 +17.2
03 20.08 штиль 0 15 км 5/3 600 м
[Sc diur, vesp Ci sp]
+27.3 +23.8 81 +37 +52 опасность
солнечного
удара
1012.7 995.2
06 20.08 ЮЗ 1 20 км 8/3 600 м
[Sc diur, vesp Ac trans Ci sp]
+30.3 +25.2 74 +44 +50 опасность
перегрева
1009.9 992.6 +30.9
09 20.08 штиль 0 20 км 10/4 600 м
[Sc diur, vesp Ac trans]
+28.4 +25.0 82 +41 +41 опасность
перегрева
1008.6 991.2
12 20.08 штиль 0 15 км 10/3 600 м
[Sc diur, vesp Ac trans]
+24.0 +21.9 88 +31 +31 очень
душно
1009.3 991.6 +31.5
15 20.08 штиль 0 10 км слаб. дождь 10/0 600 м
[As op]
+22.2 +20.2 88 +28 +28 душно 1009.4 991.6 0.0
18 20.08 штиль 0 15 км слаб. дождь 10/10 600 м
[Sc diur, vesp]
+21.8 +19.3 86 +27 +27 душно 1008.7 990.9 0.0
21 20.08 штиль 0 15 км {дождь} 10/10 600 м
[Sc diur, vesp]
+21.4 +20.0 92 +27 +27 душно 1008.7 990.9 0.0
00 21.08 ЮВ 1 10 км в посл. час дождь 10/10 600 м
[Sc diur, vesp]
+21.7 +20.1 91 +27 +27 душно 1009.5 991.7 +21.4 0.3
03 21.08 штиль 0 10 км 10/4 600 м
[Sc diur, vesp Ac trans Ci sp]
+26.4 +24.1 87 +37 +43 очень
душно
1008.3 990.8
06 21.08 ЮЗ 1 15 км слаб. ливневой дождь 10/8 600 м
[Cb cap Ci sp]
+27.5 +23.5 79 +37 +40 очень
душно
1006.7 989.3 +29.3 0.0
09 21.08 ЮЗ 2 15 км {ливн. осадки} 8/6 600 м
[Sc diur, vesp Ci sp]
+27.7 +24.1 81 +39 +39 очень
душно
1006.6 989.2 0.0
12 21.08 штиль 0 15 км 3/3 600 м
[Sc diur, vesp]
+23.4 +21.1 87 +31 +31 очень
душно
1008.3 990.6 +29.3 0.0

 

Местоположение метеостанции Хыйчхон (КНДР): широта 40.17 долгота 126.25 высота над уровнем моря 155 м.

В архиве по умолчанию представлена погода в Хыйчхоне за последнюю неделю. Архивные данные за месяц целиком и за предыдущие месяцы, начиная с января 2011 года, Вы можете получить, выбрав интересующий диапазон дат из раскрывающегося списка и нажав кнопку "Ввод!".


*Определитесь, кто Вы:
робот инопланетянин человек

Внимание! Время в таблицах - всемирное. Для получения местного времени необходимо прибавить поправку, которая равна 9 ч.

Смотрите также архив погоды в соседних городах и на ближайших метеорологических станциях:

Погода в Анджу (КНДР) (80 км)
Погода в Кусонге (КНДР) (88 км)
Погода в Джангджине (КНДР) (88 км)
Погода в Канге (КНДР) (94 км)
Погода в Цзиане (Цзяньси, Китай) (104 км)
Погода в Янгдоке (КНДР) (111 км)
Погода в Хамхыне (КНДР) (114 км)
Погода на Плотине Сапунг (КНДР) (116 км)
Погода в Пхеньяне (КНДР) (133 км)
Погода в Куаньдяне (Ляонин, Китай) (139 км)

Пояснения к столбцам:

Ветер - указаны скорость ветра в м/с - средняя за 10 мин, порывы в срок и между сроками (в фигурных скобках) и направление, откуда дует ветер: С - северный, СВ - северо-восточный, В - восточный, ЮВ - юго-восточный, Ю - южный, ЮЗ - юго-западный, З - западный, СЗ - северо-западный.
Видимость - горизонтальная дальность видимости в метрах или километрах. При видимости от 1 до 10 км при отсутствии осадков обычно наблюдается дымка, при ухудшении видимости до 1 км и менее - туман. В сухую погоду видимость может ухудшаться дымом, пылью или мглою.
Явления - указаны атмосферные явления, наблюдавшиеся в срок или в последний час перед сроком; фигурными скобками обозначены явления, наблюдавшиеся между сроками (за 1-3 часа до срока); квадратными скобками обозначены град или гололедные отложения с указанием их диаметра в мм.
Облачность - указаны через наклонную черту общая и нижняя облачность в баллах и высота нижней границы облаков в метрах; квадратными скобками обозначены формы облаков: Ci - перистые, Cs - перисто-слоистые, Cc - перисто-кучевые, Ac - высококучевые, As - высокослоистые, Sc - слоисто-кучевые, Ns - слоисто-дождевые, Cu - кучевые, Cb - кучево-дождевые. Подробнее классификацию облаков см. в Атласе облаков (PDF).
T - Температура воздуха - температура, измеренная на высоте 2 м над землей.
Td - Температура точки росы - температура, при понижении до которой содержащийся в воздухе водяной пар достигнет насыщения.
f - Относительная влажность воздуха - влажноcть воздуха, измеренная на высоте 2 м над землей.
Te - Эффективная температура - температура, которую ощущает одетый по сезону человек в тени. Характеристика душности погоды. При расчете учитывается влияние влажности воздуха и скорости ветра на теплоощущения человека.
Tes - Эффективная температура на солнце - температура, которую ощущает человек, с поправкой на солнечный нагрев. Характеристика знойности погоды. Зависит от высоты солнца над горизонтом, облачности и скорости ветра. Ночью, в пасмурную погоду, а также при ветре 12 м/с и более поправка равна нулю.
P - Атмосферное давление - приведенное к уровню моря атмосферное давление.
Po - Атмосферное давление - измеренное на уровне метеостанции атмосферное давление.
Tmin - Минимальная температура - минимум температуры воздуха на высоте 2 м над землей.
Tmax - Максимальная температура - максимум температуры воздуха на высоте 2 м над землей.
R - Количество осадков - Количество выпавших осадков за период времени, мм. При наведении курсора мыши на число - период времени, за который выпало указанное количество осадков.
R24 - Количество осадков - Количество выпавших осадков за 24 часа, мм.
S - Снежный покров - Высота снежного покрова, см. При наведении курсора мыши на число - состояние снежного покрова и степень покрытия местности в баллах.